Radiation Dose at Monitoring Post of Fukushima Daini Nuclear Power Station
Date,Time,MP-1(microSv/h),MP-2(microSv/h),MP-3(microSv/h),MP-4(microSv/h),MP-5(microSv/h),MP-6(microSv/h),MP-7(microSv/h),Wind Direction,Wind Velocity(m/s),Rain
2015/09/27,00:00,0.474,0.279,0.487,0.451,0.445,0.221,0.191,north-northwest,2.7,No
2015/09/27,00:10,0.478,0.275,0.495,0.456,0.445,0.220,0.190,north-northwest,2.5,No
2015/09/27,00:20,0.475,0.276,0.491,0.450,0.449,0.222,0.192,north-northwest,2.6,No
2015/09/27,00:30,0.477,0.275,0.491,0.452,0.443,0.222,0.190,northwest,1.5,No
2015/09/27,00:40,0.478,0.277,0.495,0.452,0.449,0.221,0.192,west-northwest,1.0,No
2015/09/27,00:50,0.473,0.277,0.489,0.449,0.442,0.221,0.191,west,1.2,No
2015/09/27,01:00,0.479,0.275,0.494,0.456,0.447,0.221,0.192,northwest,1.1,No
2015/09/27,01:10,0.476,0.276,0.491,0.449,0.446,0.221,0.191,north-northwest,0.9,No
2015/09/27,01:20,0.475,0.275,0.491,0.454,0.444,0.221,0.190,west,1.1,No
2015/09/27,01:30,0.479,0.277,0.492,0.453,0.448,0.221,0.190,-,CALM,No
2015/09/27,01:40,0.473,0.274,0.489,0.452,0.443,0.221,0.191,north,0.7,No
2015/09/27,01:50,0.479,0.277,0.494,0.454,0.449,0.222,0.191,north,1.4,No
2015/09/27,02:00,0.473,0.277,0.489,0.449,0.446,0.221,0.191,north,1.9,No
2015/09/27,02:10,0.477,0.276,0.494,0.455,0.448,0.220,0.192,north,2.5,No
2015/09/27,02:20,0.477,0.278,0.492,0.451,0.448,0.222,0.190,north,2.0,No
2015/09/27,02:30,0.474,0.276,0.489,0.453,0.445,0.220,0.191,north-northeast,1.4,No
2015/09/27,02:40,0.480,0.278,0.494,0.453,0.448,0.221,0.190,north,1.9,No
2015/09/27,02:50,0.473,0.274,0.490,0.450,0.442,0.220,0.192,north-northwest,1.4,No
2015/09/27,03:00,0.479,0.277,0.493,0.455,0.449,0.222,0.190,north,1.0,No
2015/09/27,03:10,0.475,0.277,0.492,0.450,0.445,0.222,0.192,north,1.7,No
2015/09/27,03:20,0.474,0.276,0.490,0.455,0.446,0.221,0.190,north,1.5,No
2015/09/27,03:30,0.478,0.276,0.491,0.453,0.447,0.222,0.191,north,2.4,No
2015/09/27,03:40,0.475,0.276,0.490,0.454,0.446,0.220,0.190,north,3.0,No
2015/09/27,03:50,0.479,0.276,0.494,0.453,0.446,0.222,0.191,north,1.0,No
2015/09/27,04:00,0.475,0.274,0.491,0.451,0.444,0.221,0.192,north-northeast,0.6,No
2015/09/27,04:10,0.477,0.277,0.493,0.455,0.449,0.221,0.190,north,0.6,No
2015/09/27,04:20,0.479,0.276,0.494,0.450,0.443,0.222,0.191,north,1.1,No
2015/09/27,04:30,0.472,0.276,0.491,0.454,0.448,0.220,0.190,north,0.7,No
2015/09/27,04:40,0.477,0.275,0.493,0.451,0.444,0.222,0.191,north,1.2,No
2015/09/27,04:50,0.474,0.276,0.487,0.452,0.445,0.219,0.192,north,1.5,No
2015/09/27,05:00,0.478,0.276,0.494,0.455,0.447,0.223,0.190,north,2.2,No
2015/09/27,05:10,0.476,0.275,0.492,0.449,0.444,0.220,0.190,north,3.4,No
2015/09/27,05:20,0.475,0.276,0.490,0.455,0.449,0.221,0.192,north,2.2,No
2015/09/27,05:30,0.479,0.275,0.493,0.451,0.444,0.221,0.191,north,3.9,No
2015/09/27,05:40,0.473,0.277,0.489,0.454,0.447,0.220,0.191,north,4.4,No
2015/09/27,05:50,0.478,0.276,0.494,0.454,0.447,0.222,0.190,north,4.4,No
2015/09/27,06:00,0.476,0.276,0.490,0.452,0.445,0.221,0.191,north,4.9,No
2015/09/27,06:10,0.474,0.278,0.492,0.456,0.447,0.221,0.192,north,2.1,No
2015/09/27,06:20,0.480,0.275,0.493,0.451,0.443,0.223,0.191,north,3.4,No
2015/09/27,06:30,0.474,0.278,0.490,0.454,0.449,0.221,0.192,north,3.6,No
2015/09/27,06:40,0.479,0.276,0.495,0.454,0.444,0.222,0.190,north,3.0,No
2015/09/27,06:50,0.476,0.277,0.492,0.451,0.446,0.221,0.192,north,3.1,No
2015/09/27,07:00,0.475,0.277,0.492,0.456,0.447,0.220,0.191,north,2.7,No
2015/09/27,07:10,0.479,0.277,0.493,0.451,0.443,0.222,0.192,north,3.2,No
2015/09/27,07:20,0.473,0.277,0.488,0.455,0.450,0.220,0.192,north,3.6,No
2015/09/27,07:30,0.479,0.274,0.495,0.454,0.445,0.221,0.191,north,3.8,No
2015/09/27,07:40,0.476,0.277,0.489,0.450,0.443,0.221,0.193,north,3.2,No
2015/09/27,07:50,0.473,0.278,0.489,0.458,0.448,0.220,0.192,north,3.3,No
2015/09/27,08:00,0.479,0.274,0.494,0.452,0.444,0.222,0.190,north,2.2,No
2015/09/27,08:10,0.476,0.275,0.493,0.448,0.441,0.221,0.190,north,2.1,No
2015/09/27,08:20,0.471,0.276,0.488,0.454,0.448,0.220,0.192,north-northeast,1.6,No
2015/09/27,08:30,0.480,0.275,0.494,0.453,0.446,0.221,0.192,north,2.5,No
2015/09/27,08:40,0.475,0.276,0.489,0.448,0.443,0.221,0.191,north,1.4,No
2015/09/27,08:50,0.472,0.278,0.490,0.455,0.446,0.220,0.192,north,3.4,Yes
2015/09/27,09:00,0.479,0.276,0.494,0.453,0.446,0.221,0.191,north-northwest,2.1,No
2015/09/27,09:10,0.476,0.276,0.489,0.450,0.444,0.221,0.191,north,2.5,No
2015/09/27,09:20,0.474,0.277,0.490,0.456,0.449,0.220,0.192,north,2.8,No
2015/09/27,09:30,0.480,0.276,0.493,0.454,0.446,0.221,0.191,north,1.9,No
2015/09/27,09:40,0.476,0.277,0.489,0.449,0.441,0.222,0.191,north,2.8,No
2015/09/27,09:50,0.475,0.278,0.491,0.455,0.448,0.222,0.191,north,2.8,No
2015/09/27,10:00,0.481,0.277,0.496,0.453,0.446,0.221,0.192,north,2.2,No
2015/09/27,10:10,0.477,0.276,0.490,0.447,0.441,0.221,0.191,north,2.8,No
2015/09/27,10:20,0.474,0.278,0.490,0.456,0.449,0.221,0.192,north,2.8,No
2015/09/27,10:30,0.481,0.276,0.496,0.453,0.448,0.221,0.192,north,2.8,No
2015/09/27,10:40,0.478,0.276,0.489,0.451,0.443,0.220,0.190,north,2.2,No
2015/09/27,10:50,0.473,0.278,0.489,0.456,0.448,0.220,0.192,north,3.2,No
2015/09/27,11:00,0.480,0.275,0.497,0.455,0.448,0.221,0.192,north,3.1,No
2015/09/27,11:10,0.478,0.275,0.490,0.450,0.444,0.220,0.190,north,2.8,No
2015/09/27,11:20,0.473,0.278,0.488,0.453,0.444,0.221,0.192,north-northwest,1.5,No
2015/09/27,11:30,0.481,0.274,0.494,0.456,0.449,0.221,0.192,north-northwest,1.6,No
2015/09/27,11:40,0.477,0.275,0.492,0.450,0.446,0.221,0.192,north-northwest,2.2,No
2015/09/27,11:50,0.473,0.278,0.488,0.454,0.445,0.219,0.190,north,3.0,No
2015/09/27,12:00,0.481,0.276,0.495,0.456,0.449,0.222,0.191,north,2.8,No
2015/09/27,12:10,0.476,0.276,0.493,0.452,0.445,0.221,0.191,north-northeast,2.5,No
2015/09/27,12:20,0.472,0.279,0.487,0.451,0.442,0.221,0.190,north,2.6,No
2015/09/27,12:30,0.481,0.277,0.491,0.456,0.447,0.220,0.191,north,2.1,No
2015/09/27,12:40,0.478,0.274,0.493,0.452,0.449,0.222,0.191,north,1.3,No
2015/09/27,12:50,0.473,0.277,0.489,0.450,0.443,0.221,0.190,north-northeast,1.6,No
2015/09/27,13:00,0.477,0.276,0.489,0.455,0.443,0.220,0.191,north-northeast,1.9,No
2015/09/27,13:10,0.477,0.275,0.496,0.456,0.451,0.222,0.191,north-northeast,1.9,No
2015/09/27,13:20,0.475,0.275,0.493,0.450,0.448,0.221,0.191,northeast,1.9,No
2015/09/27,13:30,0.475,0.278,0.488,0.449,0.443,0.221,0.189,northeast,2.5,No
2015/09/27,13:40,0.482,0.277,0.492,0.456,0.444,0.220,0.192,north-northeast,2.3,No
2015/09/27,13:50,0.475,0.275,0.494,0.455,0.448,0.222,0.192,north-northeast,1.2,No
2015/09/27,14:00,0.473,0.275,0.489,0.448,0.447,0.222,0.190,east-northeast,1.0,No
2015/09/27,14:10,0.478,0.277,0.486,0.451,0.444,0.221,0.190,east-northeast,1.5,No
2015/09/27,14:20,0.477,0.276,0.493,0.458,0.440,0.221,0.190,northeast,1.4,No
2015/09/27,14:30,0.474,0.276,0.494,0.455,0.445,0.222,0.192,east-northeast,1.9,No
2015/09/27,14:40,0.476,0.274,0.490,0.451,0.449,0.222,0.190,east-northeast,1.9,No
2015/09/27,14:50,0.480,0.278,0.487,0.450,0.445,0.222,0.191,east,1.9,No
2015/09/27,15:00,0.476,0.276,0.491,0.457,0.443,0.222,0.192,east-northeast,1.3,No
2015/09/27,15:10,0.475,0.275,0.496,0.454,0.446,0.220,0.191,northeast,1.4,No
2015/09/27,15:20,0.480,0.276,0.492,0.450,0.450,0.222,0.192,northeast,1.0,No
2015/09/27,15:30,0.476,0.278,0.490,0.458,0.446,0.221,0.193,east-northeast,1.0,No
2015/09/27,15:40,0.472,0.276,0.495,0.456,0.444,0.223,0.191,northeast,1.4,No
2015/09/27,15:50,0.479,0.276,0.493,0.451,0.449,0.222,0.191,northeast,0.9,No
2015/09/27,16:00,0.479,0.279,0.488,0.458,0.449,0.220,0.192,north-northeast,0.5,No
2015/09/27,16:10,0.473,0.276,0.497,0.455,0.444,0.220,0.191,-,CALM,No
2015/09/27,16:20,0.481,0.278,0.494,0.452,0.444,0.222,0.191,-,CALM,No
2015/09/27,16:30,0.480,0.278,0.491,0.458,0.450,0.221,0.191,-,CALM,No
2015/09/27,16:40,0.474,0.274,0.498,0.454,0.448,0.220,0.192,-,CALM,No
2015/09/27,16:50,0.478,0.278,0.493,0.453,0.445,0.220,0.192,north,0.5,No
2015/09/27,17:00,0.475,0.276,0.493,0.459,0.453,0.221,0.191,-,CALM,No
2015/09/27,17:10,0.476,0.278,0.497,0.453,0.448,0.222,0.192,-,CALM,No
2015/09/27,17:20,0.479,0.277,0.492,0.454,0.445,0.221,0.192,-,CALM,No
2015/09/27,17:30,0.474,0.277,0.493,0.458,0.451,0.222,0.192,-,CALM,No
2015/09/27,17:40,0.480,0.278,0.495,0.453,0.446,0.222,0.192,north,1.0,No
2015/09/27,17:50,0.477,0.277,0.491,0.456,0.450,0.221,0.192,-,CALM,No
2015/09/27,18:00,0.477,0.277,0.496,0.452,0.448,0.222,0.192,north-northeast,0.8,No
2015/09/27,18:10,0.479,0.277,0.492,0.456,0.446,0.221,0.192,-,CALM,No
2015/09/27,18:20,0.475,0.276,0.493,0.457,0.451,0.222,0.192,-,CALM,No
2015/09/27,18:30,0.483,0.277,0.496,0.453,0.445,0.222,0.191,-,CALM,No
2015/09/27,18:40,0.476,0.276,0.493,0.458,0.448,0.222,0.193,-,CALM,No
2015/09/27,18:50,0.480,0.277,0.497,0.452,0.445,0.222,0.193,-,CALM,No
2015/09/27,19:00,0.479,0.276,0.491,0.457,0.449,0.221,0.193,-,CALM,No
2015/09/27,19:10,0.477,0.278,0.495,0.454,0.447,0.223,0.192,-,CALM,No
2015/09/27,19:20,0.481,0.276,0.495,0.454,0.448,0.221,0.193,west,0.5,No
2015/09/27,19:30,0.475,0.278,0.492,0.457,0.447,0.222,0.191,west,2.2,No
2015/09/27,19:40,0.481,0.277,0.497,0.453,0.444,0.222,0.193,west,2.3,No
2015/09/27,19:50,0.477,0.277,0.490,0.457,0.448,0.222,0.193,west-northwest,2.2,No
2015/09/27,20:00,0.478,0.277,0.498,0.454,0.444,0.223,0.193,northwest,3.1,No
2015/09/27,20:10,0.479,0.279,0.495,0.458,0.451,0.221,0.193,northwest,3.7,No
2015/09/27,20:20,0.476,0.276,0.492,0.453,0.444,0.223,0.193,northwest,1.6,No
2015/09/27,20:30,0.481,0.278,0.496,0.455,0.450,0.221,0.192,north-northwest,1.3,No
2015/09/27,20:40,0.474,0.278,0.493,0.456,0.443,0.223,0.192,north-northwest,2.8,No
2015/09/27,20:50,0.479,0.278,0.496,0.454,0.451,0.222,0.192,northwest,3.0,No
2015/09/27,21:00,0.476,0.276,0.491,0.455,0.446,0.222,0.193,northwest,2.8,No
2015/09/27,21:10,0.481,0.278,0.498,0.453,0.449,0.221,0.192,northwest,1.6,No
2015/09/27,21:20,0.479,0.276,0.492,0.459,0.447,0.222,0.193,west-northwest,0.7,No
2015/09/27,21:30,0.476,0.278,0.495,0.454,0.447,0.222,0.192,northwest,1.6,No
2015/09/27,21:40,0.479,0.275,0.492,0.457,0.447,0.223,0.192,northwest,3.0,No
2015/09/27,21:50,0.475,0.277,0.494,0.453,0.445,0.221,0.191,northwest,3.6,No
2015/09/27,22:00,0.480,0.277,0.493,0.456,0.448,0.221,0.192,northwest,2.6,No
2015/09/27,22:10,0.474,0.275,0.494,0.452,0.444,0.222,0.192,northwest,3.1,No
2015/09/27,22:20,0.481,0.277,0.494,0.456,0.449,0.223,0.191,northwest,4.9,No
2015/09/27,22:30,0.477,0.277,0.492,0.454,0.442,0.221,0.192,northwest,6.1,No
2015/09/27,22:40,0.479,0.277,0.498,0.455,0.450,0.223,0.191,northwest,4.9,No
2015/09/27,22:50,0.477,0.278,0.490,0.456,0.445,0.221,0.192,northwest,4.2,No
2015/09/27,23:00,0.478,0.276,0.496,0.454,0.449,0.223,0.191,north-northwest,3.8,No
2015/09/27,23:10,0.479,0.277,0.490,0.456,0.445,0.221,0.192,north-northwest,3.6,No
2015/09/27,23:20,0.476,0.276,0.496,0.452,0.450,0.222,0.192,northwest,4.7,No
2015/09/27,23:30,0.479,0.277,0.492,0.456,0.446,0.221,0.192,north-northwest,3.5,No
2015/09/27,23:40,0.475,0.276,0.494,0.454,0.449,0.222,0.192,north-northwest,2.9,No
2015/09/27,23:50,0.480,0.277,0.494,0.456,0.445,0.221,0.192,north-northwest,2.9,No
